sat.trackr.live / text

‹ back to catalog

SES-14

NORAD 43175 · 2018-012B

PAYLOAD ACTIVE UNKNOWN

§ Identity

Operator
Country
SES
Launch date
2018-01-25
Launch site
FRGUI
Launch vehicle
Mass (kg)
RCS (m²)

Purposes: comms

External: N2YO · Heavens-Above · Gunter

§ Orbital elements

Epoch: 2026-09-19T09:54:10.073376Z

Period
1,436.09 min
Inclination
0.0274°
Eccentricity
0.0001182
Mean motion
1.00272464 rev/d
Perigee alt
35,781.4 km
Apogee alt
35,791.4 km
Semi-major
42,164.5 km
B*
0.0000e+0
RAAN
57.9502°
Arg perigee
105.0353°
Mean anomaly
296.3921°
Rev number
797

§ Raw data

SES-141 43175U 18012B   26262.41261659 -.00000283  00000+0  00000+0 0  99962 43175   0.0274  57.9502 0001182 105.0353 296.3921  1.00272464  7973

JSON: /api/v1/satellites/43175 · /tle

For live sub-satellite position, see the globe view (requires WebGL).

§ Visibility from observer

Set your observer location to see the next 7 days of passes ≥ 10°. The values pass through the URL so the page stays shareable.

No JS? Fill the form by hand. The geolocation button needs JavaScript.